Time,TemperatureF,DewpointF,PressureIn,WindDirection,WindDirectionDegrees,WindSpeedMPH,WindSpeedGustMPH,Humidity,HourlyPrecipIn,Conditions,Clouds,dailyrainin,SoftwareType,DateUTC
2013-08-17 00:02:00,68.2,-35.9,30.11,NE,45,0.0,-999.0,1,-99.99,,,0.00,Acu-Link.com,2013-08-17 04:02:00,
2013-08-17 00:18:00,68.5,-35.7,30.11,NE,45,0.0,-999.0,1,-99.99,,,0.00,Acu-Link.com,2013-08-17 04:18:00,
2013-08-17 00:33:00,68.0,-36.0,30.12,NE,45,0.0,-999.0,1,-99.99,,,0.00,Acu-Link.com,2013-08-17 04:33:00,
2013-08-17 00:48:00,68.0,-36.0,30.12,NE,45,0.0,-999.0,1,-99.99,,,0.00,Acu-Link.com,2013-08-17 04:48:00,
2013-08-17 01:03:00,69.1,-35.4,30.11,NE,45,0.0,-999.0,1,-99.99,,,0.00,Acu-Link.com,2013-08-17 05:03:00,
2013-08-17 01:19:00,68.5,-35.7,30.11,NE,45,0.0,-999.0,1,-99.99,,,0.00,Acu-Link.com,2013-08-17 05:19:00,
2013-08-17 01:34:00,67.8,-36.1,30.11,NE,45,0.0,-999.0,1,-99.99,,,0.00,Acu-Link.com,2013-08-17 05:34:00,
2013-08-17 01:49:00,68.2,-35.9,30.10,NE,45,0.0,-999.0,1,-99.99,,,0.00,Acu-Link.com,2013-08-17 05:49:00,
2013-08-17 02:04:00,68.9,-35.5,30.09,NE,45,2.7,-999.0,1,-99.99,,,0.00,Acu-Link.com,2013-08-17 06:04:00,
2013-08-17 02:19:00,69.4,-35.2,30.10,NE,45,3.2,-999.0,1,-99.99,,,0.00,Acu-Link.com,2013-08-17 06:19:00,
2013-08-17 02:34:00,69.8,-34.9,30.09,NE,45,4.2,-999.0,1,-99.99,,,0.00,Acu-Link.com,2013-08-17 06:34:00,
2013-08-17 02:50:00,69.8,-34.9,30.09,NE,45,2.7,-999.0,1,-99.99,,,0.00,Acu-Link.com,2013-08-17 06:50:00,
2013-08-17 03:05:00,69.8,-34.9,30.09,NE,45,4.7,-999.0,1,-99.99,,,0.00,Acu-Link.com,2013-08-17 07:05:00,
2013-08-17 03:20:00,69.4,-35.2,30.09,NE,45,1.7,-999.0,1,-99.99,,,0.00,Acu-Link.com,2013-08-17 07:20:00,
2013-08-17 03:35:00,69.1,-35.4,30.10,NE,45,2.2,-999.0,1,-99.99,,,0.00,Acu-Link.com,2013-08-17 07:35:00,
2013-08-17 03:51:00,68.9,-35.5,30.10,NE,45,3.7,-999.0,1,-99.99,,,0.00,Acu-Link.com,2013-08-17 07:51:00,
2013-08-17 04:07:00,68.9,-35.5,30.10,ENE,67,2.7,-999.0,1,-99.99,,,0.00,Acu-Link.com,2013-08-17 08:07:00,
2013-08-17 04:22:00,69.3,-35.2,30.10,ENE,67,3.2,-999.0,1,-99.99,,,0.00,Acu-Link.com,2013-08-17 08:22:00,
2013-08-17 04:38:00,69.4,-35.2,30.11,ENE,67,3.7,-999.0,1,-99.99,,,0.00,Acu-Link.com,2013-08-17 08:38:00,
2013-08-17 04:53:00,69.4,-35.2,30.10,ENE,67,3.7,-999.0,1,-99.99,,,0.00,Acu-Link.com,2013-08-17 08:53:00,
2013-08-17 05:09:00,69.1,-35.4,30.11,NE,45,2.7,-999.0,1,-99.99,,,0.00,Acu-Link.com,2013-08-17 09:09:00,
2013-08-17 05:24:00,69.6,-35.1,30.11,NE,45,5.8,-999.0,1,-99.99,,,0.00,Acu-Link.com,2013-08-17 09:24:00,
2013-08-17 05:39:00,69.4,-35.2,30.12,NE,45,5.8,-999.0,1,-99.99,,,0.00,Acu-Link.com,2013-08-17 09:39:00,
2013-08-17 05:54:00,69.6,-35.1,30.13,NE,45,5.3,-999.0,1,-99.99,,,0.00,Acu-Link.com,2013-08-17 09:54:00,
2013-08-17 06:09:00,69.8,-34.9,30.13,NE,45,7.3,-999.0,1,-99.99,,,0.00,Acu-Link.com,2013-08-17 10:09:00,
2013-08-17 06:24:00,69.6,-35.1,30.13,ENE,67,6.8,-999.0,1,-99.99,,,0.00,Acu-Link.com,2013-08-17 10:24:00,
2013-08-17 06:39:00,69.4,-35.2,30.14,NE,45,4.2,-999.0,1,-99.99,,,0.00,Acu-Link.com,2013-08-17 10:39:00,
2013-08-17 06:55:00,69.6,-35.1,30.15,ENE,67,6.3,-999.0,1,-99.99,,,0.00,Acu-Link.com,2013-08-17 10:55:00,
2013-08-17 07:10:00,69.6,-35.1,30.15,ENE,67,6.8,-999.0,1,-99.99,,,0.00,Acu-Link.com,2013-08-17 11:10:00,
2013-08-17 07:25:00,69.6,-35.1,30.16,ENE,67,6.3,-999.0,1,-99.99,,,0.00,Acu-Link.com,2013-08-17 11:25:00,
2013-08-17 07:40:00,69.6,-35.1,30.16,NE,45,6.8,-999.0,1,-99.99,,,0.00,Acu-Link.com,2013-08-17 11:40:00,
2013-08-17 07:55:00,69.8,-34.9,30.15,NE,45,7.8,-999.0,1,-99.99,,,0.00,Acu-Link.com,2013-08-17 11:55:00,
2013-08-17 08:10:00,70.0,-34.8,30.16,NE,45,7.3,-999.0,1,-99.99,,,0.00,Acu-Link.com,2013-08-17 12:10:00,
2013-08-17 08:25:00,70.2,-34.7,30.16,ENE,67,8.3,-999.0,1,-99.99,,,0.00,Acu-Link.com,2013-08-17 12:25:00,
2013-08-17 08:40:00,70.7,-34.4,30.17,NNE,22,7.8,-999.0,1,-99.99,,,0.00,Acu-Link.com,2013-08-17 12:40:00,
2013-08-17 08:55:00,71.2,-34.1,30.17,NE,45,9.9,-999.0,1,-99.99,,,0.00,Acu-Link.com,2013-08-17 12:55:00,
2013-08-17 09:12:00,71.6,-33.9,30.17,NNE,22,6.8,-999.0,1,-99.99,,,0.00,Acu-Link.com,2013-08-17 13:12:00,
2013-08-17 09:27:00,71.4,-34.0,30.17,NW,315,5.3,-999.0,1,-99.99,,,0.00,Acu-Link.com,2013-08-17 13:27:00,
2013-08-17 09:43:00,72.5,-33.3,30.17,NW,315,7.8,-999.0,1,-99.99,,,0.00,Acu-Link.com,2013-08-17 13:43:00,
2013-08-17 10:00:00,74.1,62.4,30.18,NE,45,7.3,-999.0,67,-99.99,,,0.00,Acu-Link.com,2013-08-17 14:00:00,
2013-08-17 10:15:00,75.6,12.8,30.18,NE,45,7.3,-999.0,9,-99.99,,,0.00,Acu-Link.com,2013-08-17 14:15:00,
2013-08-17 10:30:00,74.1,51.4,30.18,NE,45,6.3,-999.0,45,-99.99,,,0.00,Acu-Link.com,2013-08-17 14:30:00,
2013-08-17 10:45:00,73.9,-1.2,30.18,NE,45,5.3,-999.0,5,-99.99,,,0.00,Acu-Link.com,2013-08-17 14:45:00,
2013-08-17 11:01:00,76.1,55.0,30.18,NE,45,6.8,-999.0,48,-99.99,,,0.00,Acu-Link.com,2013-08-17 15:01:00,
2013-08-17 11:16:00,75.7,68.7,30.18,ESE,112,6.8,-999.0,79,-99.99,,,0.00,Acu-Link.com,2013-08-17 15:16:00,
2013-08-17 11:31:00,76.8,11.1,30.18,ESE,112,8.3,-999.0,8,-99.99,,,0.00,Acu-Link.com,2013-08-17 15:31:00,
2013-08-17 11:50:00,76.1,65.6,30.18,ESE,112,6.3,-999.0,70,-99.99,,,0.00,Acu-Link.com,2013-08-17 15:50:00,
2013-08-17 12:09:00,75.7,75.1,30.17,East,90,2.7,-999.0,98,-99.99,,,0.00,Acu-Link.com,2013-08-17 16:09:00,
2013-08-17 12:24:00,75.6,70.1,30.17,East,90,4.7,-999.0,83,-99.99,,,0.00,Acu-Link.com,2013-08-17 16:24:00,
2013-08-17 12:39:00,76.8,50.6,30.17,ENE,67,8.9,-999.0,40,-99.99,,,0.00,Acu-Link.com,2013-08-17 16:39:00,
2013-08-17 12:58:00,75.2,-31.7,30.17,NE,45,7.3,-999.0,1,-99.99,,,0.00,Acu-Link.com,2013-08-17 16:58:00,
2013-08-17 13:13:00,75.6,-31.5,30.16,East,90,9.4,-999.0,1,-99.99,,,0.00,Acu-Link.com,2013-08-17 17:13:00,
2013-08-17 13:29:00,75.9,-31.3,30.17,SSE,157,5.3,-999.0,1,-99.99,,,0.00,Acu-Link.com,2013-08-17 17:29:00,
2013-08-17 13:46:00,75.4,-31.6,30.17,NNE,22,6.8,-999.0,1,-99.99,,,0.00,Acu-Link.com,2013-08-17 17:46:00,
2013-08-17 14:01:00,75.6,-31.5,30.16,NE,45,8.3,-999.0,1,-99.99,,,0.00,Acu-Link.com,2013-08-17 18:01:00,
2013-08-17 14:20:00,75.7,-31.4,30.16,ENE,67,6.3,-999.0,1,-99.99,,,0.00,Acu-Link.com,2013-08-17 18:20:00,
2013-08-17 14:35:00,76.1,-31.2,30.16,NE,45,7.3,-999.0,1,-99.99,,,0.00,Acu-Link.com,2013-08-17 18:35:00,
2013-08-17 14:50:00,76.3,-31.0,30.15,ESE,112,5.3,-999.0,1,-99.99,,,0.00,Acu-Link.com,2013-08-17 18:50:00,
2013-08-17 15:05:00,75.9,-31.3,30.14,ENE,67,6.8,-999.0,1,-99.99,,,0.00,Acu-Link.com,2013-08-17 19:05:00,
2013-08-17 15:23:00,76.3,-31.0,30.14,NE,45,5.3,-999.0,1,-99.99,,,0.00,Acu-Link.com,2013-08-17 19:23:00,
2013-08-17 15:39:00,75.4,-31.6,30.15,NNE,22,4.7,-999.0,1,-99.99,,,0.00,Acu-Link.com,2013-08-17 19:39:00,
2013-08-17 15:54:00,76.1,-31.2,30.13,NNE,22,6.8,-999.0,1,-99.99,,,0.00,Acu-Link.com,2013-08-17 19:54:00,
2013-08-17 16:10:00,75.0,66.1,30.14,NNE,22,2.7,-999.0,74,-99.99,,,0.00,Acu-Link.com,2013-08-17 20:10:00,
2013-08-17 16:27:00,75.2,-31.7,30.16,NNE,22,3.7,-999.0,1,-99.99,,,0.00,Acu-Link.com,2013-08-17 20:27:00,
2013-08-17 16:44:00,75.6,-31.5,30.16,NE,45,4.7,-999.0,1,-99.99,,,0.00,Acu-Link.com,2013-08-17 20:44:00,
2013-08-17 16:59:00,75.4,-31.6,30.16,ENE,67,3.7,-999.0,1,-99.99,,,0.00,Acu-Link.com,2013-08-17 20:59:00,
2013-08-17 17:15:00,75.2,-31.7,30.15,East,90,4.2,-999.0,1,-99.99,,,0.00,Acu-Link.com,2013-08-17 21:15:00,
2013-08-17 17:33:00,74.8,-31.9,30.15,East,90,3.2,-999.0,1,-99.99,,,0.00,Acu-Link.com,2013-08-17 21:33:00,
2013-08-17 17:48:00,74.5,-32.1,30.16,ESE,112,2.7,-999.0,1,-99.99,,,0.00,Acu-Link.com,2013-08-17 21:48:00,
2013-08-17 18:04:00,75.6,-31.5,30.16,ESE,112,3.7,-999.0,1,-99.99,,,0.00,Acu-Link.com,2013-08-17 22:04:00,
2013-08-17 18:19:00,74.8,-31.9,30.17,ENE,67,4.2,-999.0,1,-99.99,,,0.00,Acu-Link.com,2013-08-17 22:19:00,
2013-08-17 18:34:00,74.5,33.2,30.16,NW,315,3.2,-999.0,22,-99.99,,,0.00,Acu-Link.com,2013-08-17 22:34:00,
2013-08-17 18:49:00,73.6,13.7,30.16,NE,45,4.2,-999.0,10,-99.99,,,0.00,Acu-Link.com,2013-08-17 22:49:00,
2013-08-17 19:04:00,73.2,19.4,30.16,NE,45,0.0,-999.0,13,-99.99,,,0.00,Acu-Link.com,2013-08-17 23:04:00,
2013-08-17 19:20:00,73.2,-32.9,30.15,SE,135,2.2,-999.0,1,-99.99,,,0.00,Acu-Link.com,2013-08-17 23:20:00,
2013-08-17 19:35:00,72.9,-33.1,30.16,East,90,2.2,-999.0,1,-99.99,,,0.00,Acu-Link.com,2013-08-17 23:35:00,
2013-08-17 19:50:00,72.5,-33.3,30.15,ESE,112,2.2,-999.0,1,-99.99,,,0.00,Acu-Link.com,2013-08-17 23:50:00,
2013-08-17 20:05:00,72.3,-33.4,30.15,ENE,67,3.7,-999.0,1,-99.99,,,0.00,Acu-Link.com,2013-08-18 00:05:00,
2013-08-17 20:20:00,72.3,-33.4,30.16,ENE,67,6.3,-999.0,1,-99.99,,,0.00,Acu-Link.com,2013-08-18 00:20:00,
2013-08-17 20:36:00,72.3,-33.4,30.16,East,90,2.2,-999.0,1,-99.99,,,0.00,Acu-Link.com,2013-08-18 00:36:00,
2013-08-17 20:51:00,72.3,-33.4,30.17,East,90,3.2,-999.0,1,-99.99,,,0.00,Acu-Link.com,2013-08-18 00:51:00,
2013-08-17 21:06:00,72.3,-33.4,30.17,East,90,1.7,-999.0,1,-99.99,,,0.00,Acu-Link.com,2013-08-18 01:06:00,
2013-08-17 21:21:00,72.3,-33.4,30.17,East,90,2.7,-999.0,1,-99.99,,,0.00,Acu-Link.com,2013-08-18 01:21:00,
2013-08-17 21:37:00,72.3,-33.4,30.17,East,90,3.2,-999.0,1,-99.99,,,0.00,Acu-Link.com,2013-08-18 01:37:00,
2013-08-17 21:52:00,72.3,-33.4,30.17,East,90,3.7,-999.0,1,-99.99,,,0.00,Acu-Link.com,2013-08-18 01:52:00,
2013-08-17 22:09:00,72.1,-33.6,30.18,ESE,112,2.2,-999.0,1,-99.99,,,0.00,Acu-Link.com,2013-08-18 02:09:00,
2013-08-17 22:24:00,72.1,-33.6,30.17,ESE,112,3.7,-999.0,1,-99.99,,,0.00,Acu-Link.com,2013-08-18 02:24:00,
2013-08-17 22:40:00,72.3,-33.4,30.17,SSE,157,2.2,-999.0,1,-99.99,,,0.00,Acu-Link.com,2013-08-18 02:40:00,
2013-08-17 22:56:00,72.3,-33.4,30.15,South,180,2.7,-999.0,1,-99.99,,,0.00,Acu-Link.com,2013-08-18 02:56:00,
2013-08-17 23:12:00,72.3,-33.4,30.15,NNE,22,2.7,-999.0,1,-99.99,,,0.00,Acu-Link.com,2013-08-18 03:12:00,
2013-08-17 23:29:00,72.3,-33.4,30.14,East,90,1.7,-999.0,1,-99.99,,,0.00,Acu-Link.com,2013-08-18 03:29:00,
2013-08-17 23:45:00,72.3,-33.4,30.14,East,90,3.2,-999.0,1,-99.99,,,0.00,Acu-Link.com,2013-08-18 03:45:00,